Regional Weather Roundup
Issued by NWS

Home | Current Version | Previous Version | Text Only | Print | Product List | Glossary Off
Versions: 1 2 3 4 5 6 7 8 9 10 11 12 13 14 15 16 17 18 19 20 21 22 23 24 25 26 27 28 29 30 31 32 33 34 35 36 37 38 39 40 41 42 43 44 45 46 47 48 49 50

000
ASUS43 KIND 020259
RWRIN

WEATHER ROUNDUP FOR INDIANA
NATIONAL WEATHER SERVICE INDIANAPOLIS IN
1100 PM EDT MON JUN 01 2015

NOTE: "FAIR" INDICATES FEW OR NO CLOUDS BELOW 12,000 FEET WITH NO
SIGNIFICANT WEATHER AND/OR OBSTRUCTIONS TO VISIBILITY.

* - STATION DOES NOT REPORT WEATHER SUCH AS PRECIPITATION OR FOG.

+ - STATION NOT QUALITY CONTROLLED BY THE NATIONAL WEATHER SERVICE.
    USE DATA WITH CAUTION...ESPECIALLY DEWPOINT AND RELATIVE
    HUMIDITY OBSERVATIONS.

INZ001>003-010>013-019-020-020400-
NORTHWEST INDIANA

CITY           SKY/WX    TMP DP  RH WIND       PRES   REMARKS
GARY /AIRPORT/ CLEAR     48  41  76 NE10      30.23R
RENSSELAER +   CLEAR     52  45  76 N7        30.20R

$$

LMZ046-743>745-020400-
SOUTHERN LAKE MICHIGAN

STATION/POSITION TIME  TEMP    WIND        PRES    WAVE
                       AIR SEA DIR/SP/G            HT
                 (UTC) (F)     (DEG/KT/KT) (MB)    (FT)
BURNS HARBOR     0200           30/  6/  7 1023.7R
MICHIGAN CITY    0200   50     350/  6/  7   N/A
5NW MICH CITY    0200   48 54   20/  4/  6   N/A     3

$$

INZ004-005-014>016-021>024-020400-
NORTH CENTRAL INDIANA

CITY           SKY/WX    TMP DP  RH WIND       PRES   REMARKS
GOSHEN         CLEAR     52  47  83 CALM      30.19R
PERU/GRISSOM   CLEAR     55  50  85 E5        30.18R
SOUTH BEND     CLEAR     52  44  74 NW3       30.21R

$$

INZ006>009-017-018-025>027-020400-
NORTHEAST INDIANA

CITY           SKY/WX    TMP DP  RH WIND       PRES   REMARKS
ANGOLA *+      CLEAR     50  39  66 CALM      30.20R
FORT WAYNE     PTCLDY    53  48  83 E5        30.20R

$$

INZ028-029-035-036-043>045-051>053-020400-
WEST CENTRAL INDIANA

CITY           SKY/WX    TMP DP  RH WIND       PRES   REMARKS
CRAWFORDSVL +  CLEAR     54  47  76 E7        30.17R
GREENCASTLE +  CLOUDY    55  46  71 NE7       30.18R
LAFAYETTE      CLEAR     54  50  86 E3        30.18R
TERRE HAUTE    CLOUDY    58  52  80 NE8       30.16R

$$

INZ030>032-037>040-046>048-054>057-064-065-020400-
CENTRAL INDIANA

CITY           SKY/WX    TMP DP  RH WIND       PRES   REMARKS
GREENWOOD *+   CLOUDY    55  46  71 NE9       30.18R
INDIANAPOLIS   CLOUDY    57  47  69 NE14      30.16R
-EAGLE CREEK   CLOUDY    57  48  72 NE7       30.17R
KOKOMO *+      CLEAR     54  48  82 E5        30.19R
MT COMFORT *+  MOCLDY    54  46  76 NE6       30.18S
SHELBYVILLE    CLOUDY    57  50  77 NE7       30.17R

$$

INZ033-034-041-042-049-050-058-059-020400-
EAST CENTRAL INDIANA

CITY           SKY/WX    TMP DP  RH WIND       PRES   REMARKS
MUNCIE         PTCLDY    53  48  83 E8        30.18S

$$

INZ060-061-067>069-081>083-085>088-020400-
SOUTHWEST INDIANA

CITY           SKY/WX    TMP DP  RH WIND       PRES   REMARKS
EVANSVILLE     CLOUDY    60  54  80 NE7       30.13R
HUNTINGBURG *+ CLOUDY    59  54  82 NE6       30.14R

$$

INZ062-063-066-070>080-084-089>092-020400-
SOUTH CENTRAL AND SOUTHEAST INDIANA

CITY           SKY/WX    TMP DP  RH WIND       PRES   REMARKS
BLOOMINGTON    CLOUDY    58  52  80 NE7       30.15R
MADISON *+     CLOUDY    55  52  88 N5        30.16R
SEYMOUR +      CLOUDY    59  54  82 NE12      30.15R

$$



USA.gov is the U.S. government's official web portal to all federal, state and local government web resources and services.